Location: Ch�teau-Arnoux
(44.0814°N, 6.0027°E)
Time: 22:35:07
(UTC+00:00)

Cosmos 1802 Rocket - Pass Details

Date: 15 November 2019
Orbit: 953 x 1012 km, 82.9° (Epoch: 10 December)

Event Time Altitude Azimuth Distance (km) Brightness Sun altitude
Rises 05:45:06 0° 207° (SSW) 3,731 7.0 -8.4°
Reaches altitude 10° 05:47:45 10° 213° (SSW) 2,786 6.2 -8.0°
Maximum altitude 05:53:50 44° 285° (WNW) 1,371 4.4 -6.9°
Drops below altitude 10° 05:59:57 10° 356° (N) 2,794 6.2 -5.9°
Sets 06:02:39 0° 3° (N) 3,742 6.9 -5.5°
